This demonstration page uses our WeatherBlox Daily Observations layout. Learn more.

Hourly Observations for December 13, 2017

Temp ( °F °C ) Dew Point ( °F °C ) Humidity (%) Winds ( mph kmh ) Pressure ( in mb ) Visibility ( mi km ) Precip ( " mm )
12:53 am 00:53 Clear 14 -10 10 -12.2 84 84 WNW 3 6 30.04 1017 10 16.0934 0 0
1:53 am 01:53 Clear 16 -8.9 10 -12.2 77 77 W 5 7 30.02 1017 10 16.0934 0 0
2:53 am 02:53 Partly Cloudy 17 -8.3 12 -11.1 80 80 W 5 7 30.02 1017 10 16.0934 0 0
3:53 am 03:53 Clear 15 -9.4 10 -12.2 80 80 Calm 30.01 1016 10 16.0934 0 0
4:53 am 04:53 Partly Cloudy 13 -10.6 9 -12.8 84 84 Calm 29.99 1016 10 16.0934 0 0
5:53 am 05:53 Cloudy 19 -7.2 12 -11.1 74 74 Calm 29.98 1015 10 16.0934 0 0
6:53 am 06:53 Cloudy 21 -6.1 10 -12.2 62 62 SSW 5 7 29.97 1015 10 16.0934 0 0
7:53 am 07:53 Cloudy 22 -5.6 10 -12.2 60 60 SSW 5 7 29.95 1014 10 16.0934 0 0
8:53 am 08:53 Cloudy 24 -4.4 11 -11.7 57 57 SSW 9 15 29.93 1013 10 16.0934 0 0
9:53 am 09:53 Mostly Cloudy 26 -3.3 11 -11.7 53 53 SSW 6 9 29.89 1012 10 16.0934 0 0
10:53 am 10:53 Cloudy 28 -2.2 8 -13.3 43 43 SSW 10 17 29.86 1011 10 16.0934 0 0
11:53 am 11:53 Cloudy 30 -1.1 9 -12.8 41 41 VRB 6 9 29.78 1008 10 16.0934 0 0
12:53 pm 12:53 Cloudy 33 0.6 10 -12.2 38 38 S 12 19 29.68 1005 10 16.0934 0 0
1:53 pm 13:53 Cloudy 34 1.1 10 -12.2 37 37 VRB 7 11 29.6 1003 10 16.0934 0 0
2:53 pm 14:53 Partly Cloudy 36 2.2 10 -12.2 34 34 S 8 13 29.51 999 10 16.0934 0 0
3:53 pm 15:53 Sunny 38 3.3 11 -11.7 33 33 S 9 15 29.52 1000 10 16.0934 0 0
4:53 pm 16:53 Mostly Cloudy 38 3.3 13 -10.6 36 36 S 9 15 29.5 999 10 16.0934 0 0
5:53 pm 17:53 Cloudy 39 3.9 15 -9.4 38 38 SW 8 13 29.49 999 10 16.0934 0 0
6:53 pm 18:53 Cloudy 41 5 19 -7.2 41 41 SW 10 17 29.47 998 10 16.0934 0 0
7:53 pm 19:53 Cloudy 43 6.1 21 -6.1 42 42 SW 10 17 29.45 997 10 16.0934 0 0
8:53 pm 20:53 Cloudy 45 7.2 28 -2.2 52 52 W 24 39 29.48 998 10 16.0934 0 0
9:20 pm 21:20 Cloudy with Light Rain 42 5.6 34 1.1 73 73 W 21 33 29.53 1000 10 16.0934 0 0.0254
9:53 pm 21:53 Cloudy 42 5.6 33 0.6 71 71 W 22 35 29.52 1000 10 16.0934 0 0.0254
10:24 pm 22:24 Cloudy 41 5 31 -0.6 67 67 W 20 31 29.56 1001 10 16.0934 0 0
10:53 pm 22:53 Cloudy 41 5 29 -1.7 62 62 W 21 33 29.56 1001 10 16.0934 0 0
11:53 pm 23:53 Cloudy 39 3.9 29 -1.7 67 67 W 20 31 29.6 1002 10 16.0934 0 0.0254

Powered by AerisWeather